GFSGBSN_prec_pwat_114.txt.gz
Precipitable_Water
0.95 0.87 0.79 0.74 0.69 0.68 0.67 0.62 0.56 0.53 0.52 0.48 0.46 0.43 0.39 0.38 0.37 0.35 0.32 0.31 0.30 0.31 0.32 0.32 0.35 0.36 0.26 0.12 0.11 0.17 0.20 0.23 0.35 0.44 0.38 0.37 0.40 0.43 0.41 0.45 0.47 0.44 0.45 0.45 0.48 0.46 0.44
0.91 0.84 0.79 0.75 0.71 0.68 0.60 0.53 0.53 0.53 0.50 0.47 0.44 0.41 0.40 0.38 0.37 0.35 0.31 0.28 0.30 0.31 0.32 0.36 0.40 0.39 0.24 0.11 0.14 0.17 0.16 0.17 0.18 0.19 0.28 0.35 0.34 0.40 0.39 0.41 0.40 0.43 0.44 0.45 0.46 0.45 0.46
0.85 0.80 0.79 0.75 0.71 0.60 0.57 0.56 0.55 0.52 0.49 0.46 0.44 0.42 0.41 0.38 0.36 0.31 0.29 0.28 0.30 0.32 0.37 0.37 0.39 0.34 0.21 0.14 0.20 0.26 0.34 0.33 0.35 0.33 0.22 0.24 0.35 0.36 0.41 0.37 0.41 0.41 0.37 0.41 0.42 0.43 0.43
0.83 0.85 0.82 0.75 0.67 0.63 0.60 0.55 0.52 0.50 0.47 0.46 0.43 0.42 0.41 0.38 0.34 0.30 0.26 0.27 0.29 0.34 0.32 0.35 0.38 0.30 0.12 0.19 0.29 0.41 0.40 0.34 0.34 0.40 0.36 0.34 0.24 0.27 0.27 0.34 0.38 0.34 0.36 0.31 0.39 0.42 0.44
0.82 0.79 0.76 0.71 0.65 0.61 0.57 0.53 0.50 0.48 0.48 0.45 0.43 0.42 0.39 0.34 0.30 0.27 0.20 0.23 0.30 0.31 0.31 0.35 0.31 0.20 0.13 0.29 0.18 0.22 0.22 0.18 0.22 0.34 0.35 0.31 0.27 0.23 0.25 0.24 0.24 0.27 0.23 0.25 0.30 0.42 0.41
0.81 0.77 0.75 0.69 0.63 0.59 0.55 0.53 0.50 0.47 0.46 0.43 0.43 0.40 0.36 0.29 0.28 0.24 0.19 0.22 0.23 0.27 0.24 0.31 0.31 0.13 0.15 0.14 0.18 0.21 0.23 0.21 0.17 0.18 0.21 0.25 0.21 0.14 0.17 0.21 0.17 0.21 0.22 0.24 0.24 0.29 0.34
0.80 0.74 0.70 0.68 0.62 0.57 0.51 0.51 0.49 0.45 0.45 0.44 0.43 0.36 0.30 0.29 0.28 0.24 0.19 0.18 0.14 0.16 0.13 0.11 0.13 0.16 0.18 0.24 0.26 0.22 0.22 0.19 0.17 0.15 0.10 0.16 0.15 0.10 0.12 0.14 0.18 0.20 0.19 0.21 0.24 0.29 0.35
0.76 0.72 0.69 0.65 0.59 0.53 0.52 0.51 0.46 0.44 0.45 0.44 0.38 0.33 0.30 0.28 0.25 0.24 0.22 0.16 0.19 0.22 0.11 0.17 0.20 0.23 0.25 0.24 0.14 0.18 0.19 0.15 0.14 0.12 0.11 0.10 0.09 0.10 0.14 0.12 0.12 0.15 0.17 0.18 0.21 0.23 0.28
0.72 0.67 0.66 0.61 0.56 0.53 0.50 0.47 0.45 0.44 0.44 0.40 0.35 0.31 0.28 0.25 0.23 0.24 0.21 0.22 0.33 0.32 0.13 0.12 0.18 0.20 0.18 0.17 0.11 0.15 0.16 0.16 0.15 0.12 0.13 0.09 0.06 0.12 0.12 0.15 0.13 0.13 0.13 0.14 0.17 0.22 0.23
0.68 0.65 0.64 0.60 0.56 0.53 0.48 0.46 0.45 0.44 0.44 0.38 0.34 0.31 0.26 0.23 0.19 0.22 0.19 0.28 0.32 0.34 0.08 0.09 0.13 0.20 0.15 0.14 0.12 0.19 0.18 0.23 0.18 0.13 0.15 0.12 0.11 0.09 0.10 0.13 0.13 0.11 0.15 0.16 0.16 0.16 0.14
0.67 0.64 0.60 0.56 0.54 0.50 0.46 0.45 0.44 0.47 0.40 0.37 0.34 0.31 0.28 0.24 0.20 0.17 0.23 0.29 0.31 0.30 0.03 0.09 0.11 0.16 0.17 0.14 0.16 0.23 0.25 0.24 0.16 0.17 0.18 0.10 0.13 0.14 0.10 0.08 0.16 0.12 0.16 0.16 0.17 0.16 0.17
0.63 0.61 0.57 0.55 0.51 0.46 0.46 0.48 0.46 0.42 0.39 0.35 0.33 0.31 0.28 0.26 0.26 0.27 0.30 0.29 0.26 0.08 0.05 0.07 0.10 0.11 0.12 0.14 0.16 0.21 0.20 0.31 0.33 0.24 0.19 0.17 0.21 0.18 0.15 0.15 0.12 0.18 0.19 0.16 0.16 0.15 0.12
0.64 0.58 0.54 0.52 0.49 0.47 0.46 0.45 0.44 0.40 0.36 0.35 0.33 0.31 0.29 0.32 0.21 0.32 0.31 0.20 0.08 0.05 0.08 0.08 0.10 0.13 0.13 0.12 0.15 0.17 0.20 0.25 0.27 0.21 0.21 0.23 0.15 0.16 0.17 0.14 0.15 0.16 0.16 0.10 0.10 0.11 0.09
0.58 0.54 0.51 0.50 0.46 0.47 0.47 0.45 0.41 0.37 0.35 0.34 0.33 0.31 0.34 0.32 0.35 0.34 0.25 0.12 0.06 0.07 0.08 0.12 0.13 0.13 0.12 0.14 0.13 0.17 0.21 0.23 0.27 0.28 0.24 0.21 0.14 0.19 0.18 0.15 0.11 0.15 0.15 0.10 0.07 0.08 0.10
0.57 0.53 0.52 0.49 0.49 0.52 0.46 0.44 0.39 0.36 0.35 0.34 0.32 0.33 0.32 0.34 0.37 0.34 0.18 0.09 0.07 0.10 0.14 0.14 0.14 0.10 0.11 0.15 0.17 0.20 0.21 0.22 0.25 0.31 0.23 0.21 0.23 0.24 0.24 0.17 0.13 0.12 0.14 0.12 0.10 0.12 0.13
0.61 0.54 0.53 0.55 0.49 0.45 0.43 0.44 0.38 0.37 0.35 0.34 0.30 0.30 0.31 0.39 0.40 0.29 0.16 0.10 0.12 0.17 0.18 0.18 0.12 0.15 0.12 0.14 0.15 0.19 0.21 0.23 0.26 0.31 0.37 0.31 0.20 0.28 0.33 0.20 0.18 0.13 0.15 0.11 0.11 0.09 0.07
0.60 0.55 0.51 0.53 0.48 0.48 0.44 0.42 0.38 0.40 0.35 0.35 0.29 0.23 0.36 0.44 0.38 0.22 0.12 0.13 0.16 0.22 0.22 0.18 0.16 0.15 0.17 0.17 0.19 0.20 0.22 0.22 0.26 0.29 0.32 0.35 0.30 0.27 0.30 0.22 0.15 0.16 0.18 0.16 0.12 0.12 0.09
0.60 0.55 0.51 0.50 0.49 0.47 0.44 0.43 0.42 0.41 0.36 0.34 0.26 0.17 0.38 0.40 0.18 0.18 0.14 0.17 0.20 0.21 0.24 0.23 0.23 0.22 0.21 0.22 0.18 0.20 0.21 0.23 0.29 0.31 0.28 0.38 0.31 0.25 0.27 0.40 0.32 0.18 0.19 0.19 0.14 0.12 0.13
0.61 0.56 0.54 0.47 0.46 0.44 0.45 0.47 0.41 0.41 0.38 0.33 0.22 0.22 0.38 0.35 0.14 0.14 0.18 0.18 0.20 0.19 0.19 0.22 0.22 0.26 0.26 0.21 0.19 0.21 0.20 0.25 0.29 0.29 0.32 0.34 0.28 0.21 0.22 0.30 0.39 0.27 0.19 0.24 0.24 0.19 0.17
0.55 0.54 0.52 0.50 0.47 0.47 0.46 0.45 0.42 0.44 0.42 0.36 0.24 0.18 0.25 0.30 0.25 0.17 0.16 0.16 0.15 0.19 0.19 0.24 0.23 0.27 0.22 0.19 0.23 0.19 0.20 0.24 0.28 0.28 0.35 0.34 0.30 0.26 0.21 0.27 0.35 0.32 0.31 0.30 0.20 0.19 0.16
0.58 0.57 0.54 0.53 0.51 0.52 0.51 0.48 0.43 0.46 0.43 0.36 0.26 0.20 0.24 0.18 0.20 0.20 0.20 0.17 0.15 0.15 0.19 0.20 0.22 0.23 0.20 0.16 0.17 0.18 0.20 0.19 0.23 0.26 0.29 0.29 0.22 0.29 0.29 0.32 0.29 0.34 0.37 0.36 0.27 0.23 0.20
0.56 0.58 0.59 0.58 0.56 0.54 0.54 0.50 0.46 0.49 0.47 0.35 0.22 0.21 0.23 0.19 0.22 0.21 0.19 0.15 0.14 0.16 0.17 0.17 0.18 0.21 0.20 0.18 0.20 0.17 0.20 0.19 0.19 0.22 0.25 0.26 0.21 0.25 0.21 0.30 0.29 0.25 0.35 0.35 0.35 0.33 0.27
0.56 0.57 0.61 0.60 0.57 0.54 0.51 0.50 0.46 0.51 0.44 0.33 0.33 0.32 0.24 0.20 0.18 0.16 0.16 0.14 0.16 0.18 0.17 0.20 0.22 0.18 0.18 0.21 0.24 0.23 0.25 0.23 0.25 0.24 0.25 0.24 0.21 0.18 0.18 0.27 0.30 0.24 0.31 0.32 0.33 0.37 0.37
0.58 0.57 0.61 0.60 0.57 0.53 0.49 0.47 0.45 0.48 0.45 0.37 0.32 0.31 0.22 0.15 0.16 0.16 0.16 0.17 0.17 0.19 0.16 0.18 0.20 0.18 0.22 0.28 0.25 0.26 0.26 0.25 0.27 0.29 0.32 0.25 0.21 0.20 0.17 0.24 0.18 0.29 0.40 0.38 0.35 0.37 0.42
0.56 0.58 0.61 0.60 0.55 0.51 0.47 0.44 0.44 0.45 0.47 0.37 0.36 0.30 0.23 0.15 0.16 0.17 0.17 0.18 0.18 0.19 0.18 0.18 0.19 0.25 0.28 0.25 0.20 0.16 0.16 0.18 0.21 0.25 0.28 0.30 0.22 0.18 0.17 0.19 0.21 0.32 0.33 0.37 0.34 0.33 0.43
0.55 0.57 0.60 0.57 0.53 0.47 0.45 0.43 0.45 0.44 0.49 0.41 0.38 0.38 0.28 0.19 0.15 0.18 0.16 0.18 0.16 0.17 0.18 0.20 0.25 0.27 0.29 0.24 0.21 0.14 0.14 0.17 0.17 0.20 0.29 0.30 0.30 0.19 0.16 0.14 0.15 0.27 0.32 0.39 0.43 0.33 0.54
0.58 0.57 0.58 0.55 0.51 0.45 0.44 0.40 0.40 0.41 0.49 0.44 0.38 0.39 0.31 0.21 0.21 0.22 0.19 0.20 0.24 0.21 0.17 0.20 0.23 0.21 0.30 0.22 0.18 0.17 0.19 0.23 0.18 0.18 0.20 0.22 0.24 0.19 0.17 0.14 0.15 0.29 0.33 0.41 0.29 0.34 0.56
0.59 0.59 0.58 0.56 0.50 0.47 0.44 0.40 0.38 0.40 0.48 0.46 0.40 0.42 0.33 0.25 0.24 0.26 0.25 0.21 0.20 0.19 0.17 0.23 0.20 0.25 0.23 0.20 0.20 0.19 0.20 0.22 0.22 0.23 0.23 0.23 0.21 0.20 0.20 0.16 0.13 0.26 0.34 0.31 0.39 0.50 0.61
0.57 0.57 0.59 0.54 0.52 0.48 0.44 0.42 0.40 0.42 0.49 0.48 0.36 0.42 0.44 0.31 0.27 0.33 0.32 0.30 0.27 0.27 0.25 0.27 0.22 0.23 0.25 0.22 0.22 0.23 0.20 0.22 0.22 0.19 0.28 0.23 0.29 0.24 0.24 0.22 0.32 0.34 0.37 0.50 0.54 0.53 0.60

GFSGBSN_prec_pwat_117.txt.gz
Precipitable_Water
1.09 1.03 0.96 0.88 0.81 0.77 0.75 0.72 0.67 0.63 0.59 0.52 0.46 0.44 0.43 0.42 0.38 0.35 0.31 0.29 0.30 0.30 0.32 0.32 0.32 0.33 0.30 0.18 0.15 0.18 0.15 0.15 0.14 0.18 0.27 0.30 0.27 0.34 0.39 0.42 0.43 0.41 0.45 0.49 0.51 0.50 0.47
1.09 1.04 0.96 0.88 0.81 0.81 0.76 0.69 0.64 0.61 0.55 0.49 0.45 0.43 0.43 0.40 0.36 0.33 0.31 0.30 0.29 0.30 0.33 0.34 0.34 0.35 0.28 0.13 0.19 0.22 0.27 0.28 0.25 0.24 0.17 0.15 0.28 0.29 0.31 0.35 0.39 0.45 0.47 0.48 0.50 0.50 0.50
1.10 1.02 0.96 0.89 0.83 0.78 0.71 0.67 0.63 0.59 0.52 0.48 0.46 0.42 0.41 0.39 0.37 0.33 0.31 0.30 0.29 0.32 0.35 0.32 0.32 0.33 0.23 0.18 0.24 0.38 0.31 0.28 0.35 0.30 0.29 0.33 0.20 0.23 0.32 0.30 0.39 0.39 0.37 0.41 0.43 0.45 0.45
1.06 0.99 0.94 0.90 0.82 0.77 0.73 0.68 0.62 0.56 0.51 0.48 0.44 0.42 0.41 0.38 0.35 0.32 0.29 0.30 0.30 0.33 0.31 0.32 0.34 0.31 0.19 0.21 0.26 0.22 0.21 0.18 0.19 0.20 0.24 0.35 0.34 0.24 0.20 0.28 0.26 0.26 0.34 0.32 0.38 0.43 0.44
1.04 1.01 0.97 0.91 0.82 0.79 0.71 0.65 0.58 0.54 0.52 0.46 0.44 0.43 0.41 0.37 0.34 0.30 0.27 0.29 0.28 0.30 0.28 0.34 0.39 0.25 0.20 0.30 0.19 0.22 0.21 0.17 0.17 0.17 0.16 0.27 0.26 0.22 0.24 0.18 0.19 0.23 0.18 0.23 0.30 0.36 0.41
1.00 0.98 0.91 0.87 0.81 0.75 0.68 0.63 0.58 0.51 0.48 0.46 0.44 0.43 0.39 0.35 0.33 0.28 0.26 0.26 0.28 0.30 0.29 0.34 0.35 0.16 0.22 0.17 0.19 0.21 0.21 0.18 0.18 0.18 0.15 0.15 0.19 0.14 0.16 0.17 0.17 0.14 0.20 0.23 0.24 0.30 0.32
1.01 0.93 0.84 0.83 0.77 0.70 0.65 0.59 0.53 0.48 0.46 0.45 0.44 0.40 0.37 0.35 0.30 0.27 0.27 0.26 0.17 0.25 0.17 0.12 0.15 0.15 0.17 0.17 0.22 0.16 0.19 0.14 0.18 0.15 0.12 0.15 0.10 0.08 0.11 0.13 0.13 0.17 0.16 0.16 0.26 0.28 0.28
0.99 0.90 0.87 0.84 0.74 0.66 0.60 0.56 0.51 0.47 0.47 0.45 0.41 0.38 0.38 0.33 0.28 0.28 0.27 0.17 0.16 0.19 0.15 0.20 0.23 0.23 0.22 0.18 0.10 0.11 0.17 0.13 0.13 0.11 0.14 0.12 0.07 0.09 0.10 0.12 0.11 0.11 0.13 0.18 0.17 0.19 0.22
0.94 0.86 0.80 0.78 0.69 0.61 0.58 0.55 0.50 0.47 0.47 0.43 0.39 0.38 0.35 0.29 0.29 0.31 0.25 0.22 0.30 0.30 0.20 0.16 0.20 0.19 0.15 0.15 0.12 0.15 0.17 0.17 0.15 0.14 0.14 0.11 0.09 0.14 0.12 0.10 0.10 0.11 0.10 0.12 0.16 0.17 0.20
0.89 0.85 0.79 0.75 0.69 0.63 0.57 0.53 0.49 0.47 0.46 0.41 0.39 0.37 0.33 0.29 0.29 0.26 0.25 0.29 0.32 0.34 0.17 0.14 0.15 0.20 0.16 0.16 0.15 0.19 0.26 0.18 0.18 0.15 0.15 0.13 0.16 0.15 0.12 0.10 0.09 0.11 0.13 0.14 0.13 0.16 0.14
0.84 0.78 0.74 0.71 0.65 0.60 0.54 0.51 0.49 0.49 0.44 0.41 0.37 0.35 0.31 0.28 0.24 0.22 0.25 0.32 0.34 0.36 0.09 0.13 0.12 0.16 0.16 0.14 0.15 0.16 0.21 0.18 0.18 0.22 0.24 0.16 0.18 0.16 0.14 0.13 0.13 0.08 0.13 0.17 0.15 0.15 0.17
0.79 0.77 0.73 0.68 0.64 0.56 0.52 0.49 0.49 0.47 0.42 0.39 0.37 0.35 0.32 0.33 0.32 0.28 0.32 0.33 0.31 0.18 0.09 0.11 0.12 0.12 0.11 0.14 0.14 0.17 0.17 0.26 0.29 0.24 0.23 0.21 0.24 0.26 0.18 0.19 0.19 0.17 0.13 0.15 0.18 0.16 0.15
0.79 0.73 0.68 0.63 0.59 0.53 0.51 0.53 0.49 0.44 0.40 0.38 0.37 0.33 0.33 0.34 0.28 0.32 0.33 0.28 0.15 0.10 0.11 0.11 0.11 0.12 0.12 0.13 0.13 0.15 0.16 0.17 0.21 0.16 0.14 0.18 0.22 0.24 0.25 0.20 0.20 0.19 0.15 0.10 0.14 0.13 0.11
0.74 0.68 0.62 0.60 0.59 0.55 0.51 0.49 0.45 0.41 0.39 0.37 0.36 0.34 0.33 0.34 0.36 0.35 0.31 0.20 0.10 0.11 0.10 0.14 0.13 0.13 0.11 0.13 0.15 0.16 0.17 0.18 0.24 0.24 0.20 0.17 0.12 0.24 0.34 0.28 0.17 0.17 0.16 0.11 0.11 0.11 0.09
0.73 0.70 0.63 0.62 0.55 0.53 0.53 0.47 0.44 0.40 0.38 0.36 0.36 0.38 0.36 0.35 0.39 0.37 0.26 0.16 0.12 0.13 0.15 0.14 0.13 0.11 0.11 0.15 0.15 0.16 0.18 0.20 0.24 0.25 0.22 0.19 0.17 0.26 0.32 0.29 0.28 0.16 0.14 0.15 0.16 0.15 0.12
0.68 0.62 0.57 0.56 0.53 0.55 0.51 0.45 0.42 0.41 0.37 0.38 0.38 0.35 0.35 0.39 0.40 0.35 0.22 0.14 0.15 0.16 0.17 0.17 0.12 0.13 0.11 0.14 0.15 0.16 0.18 0.24 0.24 0.26 0.29 0.28 0.18 0.27 0.31 0.39 0.32 0.20 0.18 0.13 0.15 0.13 0.11
0.64 0.62 0.58 0.59 0.56 0.50 0.47 0.45 0.42 0.40 0.38 0.38 0.35 0.30 0.39 0.42 0.40 0.27 0.19 0.17 0.17 0.21 0.19 0.17 0.15 0.14 0.15 0.15 0.16 0.16 0.20 0.25 0.26 0.25 0.28 0.30 0.30 0.23 0.34 0.32 0.24 0.18 0.15 0.14 0.17 0.15 0.12
0.68 0.62 0.60 0.57 0.57 0.52 0.50 0.44 0.42 0.40 0.39 0.35 0.32 0.25 0.40 0.40 0.26 0.22 0.19 0.19 0.19 0.21 0.23 0.21 0.20 0.20 0.19 0.19 0.16 0.17 0.19 0.22 0.27 0.26 0.23 0.35 0.28 0.23 0.27 0.39 0.37 0.34 0.16 0.14 0.13 0.14 0.13
0.68 0.69 0.62 0.58 0.58 0.51 0.48 0.44 0.48 0.43 0.39 0.37 0.29 0.29 0.38 0.37 0.21 0.18 0.23 0.18 0.19 0.19 0.19 0.20 0.20 0.23 0.23 0.19 0.15 0.19 0.19 0.24 0.28 0.25 0.25 0.29 0.25 0.19 0.20 0.32 0.38 0.30 0.25 0.18 0.17 0.16 0.12
0.63 0.61 0.60 0.55 0.52 0.49 0.47 0.45 0.47 0.41 0.41 0.42 0.28 0.23 0.29 0.30 0.29 0.24 0.21 0.18 0.18 0.19 0.17 0.18 0.21 0.22 0.22 0.17 0.19 0.18 0.18 0.23 0.26 0.25 0.27 0.33 0.26 0.24 0.19 0.26 0.31 0.30 0.28 0.27 0.23 0.21 0.14
0.60 0.61 0.59 0.59 0.53 0.49 0.51 0.47 0.44 0.43 0.42 0.41 0.32 0.26 0.31 0.23 0.23 0.22 0.21 0.19 0.16 0.16 0.19 0.23 0.18 0.21 0.20 0.15 0.15 0.16 0.19 0.20 0.22 0.26 0.26 0.29 0.19 0.23 0.22 0.25 0.30 0.34 0.35 0.27 0.27 0.30 0.21
0.62 0.60 0.56 0.52 0.53 0.55 0.57 0.52 0.48 0.47 0.45 0.38 0.27 0.26 0.28 0.25 0.27 0.22 0.21 0.17 0.16 0.16 0.18 0.16 0.17 0.18 0.20 0.16 0.17 0.16 0.19 0.19 0.16 0.22 0.24 0.30 0.20 0.21 0.20 0.29 0.29 0.30 0.35 0.33 0.30 0.26 0.27
0.60 0.58 0.57 0.57 0.57 0.56 0.58 0.58 0.52 0.50 0.44 0.35 0.37 0.35 0.28 0.24 0.22 0.20 0.20 0.19 0.17 0.17 0.18 0.18 0.18 0.18 0.16 0.18 0.21 0.22 0.21 0.20 0.23 0.24 0.24 0.27 0.23 0.22 0.16 0.24 0.30 0.27 0.35 0.37 0.41 0.41 0.26
0.62 0.58 0.55 0.57 0.57 0.56 0.54 0.56 0.55 0.50 0.43 0.42 0.37 0.33 0.25 0.21 0.19 0.18 0.18 0.18 0.17 0.19 0.17 0.19 0.20 0.17 0.19 0.23 0.22 0.21 0.21 0.23 0.25 0.26 0.30 0.26 0.24 0.23 0.19 0.24 0.19 0.33 0.37 0.43 0.38 0.39 0.44
0.62 0.60 0.57 0.57 0.59 0.60 0.56 0.53 0.53 0.50 0.46 0.44 0.40 0.33 0.26 0.20 0.19 0.18 0.18 0.18 0.19 0.20 0.17 0.18 0.20 0.22 0.26 0.21 0.17 0.16 0.16 0.18 0.24 0.26 0.26 0.31 0.27 0.21 0.18 0.19 0.26 0.32 0.32 0.30 0.31 0.35 0.48
0.60 0.60 0.60 0.59 0.60 0.61 0.57 0.52 0.51 0.48 0.48 0.45 0.41 0.38 0.31 0.22 0.19 0.20 0.19 0.19 0.17 0.17 0.18 0.21 0.25 0.28 0.24 0.21 0.20 0.15 0.14 0.19 0.18 0.21 0.30 0.30 0.33 0.23 0.18 0.16 0.17 0.27 0.34 0.38 0.39 0.30 0.47
0.58 0.57 0.57 0.59 0.60 0.58 0.55 0.49 0.48 0.46 0.47 0.44 0.41 0.43 0.33 0.23 0.25 0.22 0.17 0.19 0.22 0.20 0.19 0.21 0.22 0.22 0.26 0.21 0.18 0.17 0.18 0.21 0.19 0.19 0.21 0.22 0.25 0.22 0.20 0.19 0.19 0.32 0.36 0.37 0.28 0.33 0.54
0.60 0.56 0.57 0.60 0.60 0.56 0.50 0.48 0.46 0.45 0.45 0.45 0.42 0.46 0.34 0.26 0.27 0.26 0.26 0.22 0.21 0.22 0.17 0.24 0.21 0.25 0.22 0.19 0.19 0.21 0.19 0.22 0.21 0.24 0.24 0.21 0.23 0.25 0.23 0.17 0.16 0.39 0.33 0.29 0.42 0.54 0.56
0.58 0.57 0.58 0.60 0.59 0.55 0.50 0.48 0.43 0.41 0.42 0.48 0.40 0.47 0.42 0.34 0.31 0.39 0.34 0.32 0.29 0.28 0.27 0.27 0.24 0.24 0.25 0.21 0.24 0.23 0.22 0.22 0.22 0.19 0.30 0.24 0.28 0.25 0.26 0.25 0.39 0.41 0.39 0.46 0.50 0.51 0.56

GFSGBSN_prec_pwat_120.txt.gz
Precipitable_Water
1.13 1.13 1.13 1.03 0.97 0.91 0.86 0.79 0.76 0.73 0.68 0.61 0.56 0.52 0.47 0.43 0.41 0.38 0.35 0.33 0.32 0.31 0.31 0.33 0.36 0.35 0.29 0.26 0.19 0.23 0.27 0.26 0.22 0.17 0.14 0.11 0.14 0.20 0.19 0.24 0.34 0.36 0.37 0.42 0.46 0.49 0.51
1.19 1.20 1.12 1.04 0.97 0.93 0.90 0.85 0.79 0.73 0.66 0.60 0.54 0.50 0.46 0.42 0.40 0.37 0.35 0.34 0.34 0.32 0.33 0.34 0.35 0.36 0.32 0.19 0.24 0.35 0.31 0.24 0.31 0.28 0.27 0.26 0.19 0.15 0.17 0.18 0.19 0.26 0.33 0.39 0.45 0.46 0.48
1.23 1.20 1.12 1.06 0.99 0.97 0.91 0.84 0.76 0.71 0.65 0.59 0.55 0.51 0.46 0.42 0.39 0.37 0.35 0.33 0.35 0.35 0.35 0.33 0.35 0.35 0.27 0.21 0.28 0.25 0.23 0.20 0.20 0.22 0.17 0.20 0.25 0.22 0.14 0.17 0.22 0.24 0.26 0.31 0.32 0.41 0.45
1.30 1.21 1.14 1.07 0.99 0.92 0.86 0.86 0.80 0.73 0.63 0.58 0.54 0.50 0.46 0.42 0.39 0.38 0.35 0.37 0.36 0.37 0.33 0.33 0.39 0.39 0.23 0.26 0.27 0.22 0.22 0.19 0.20 0.18 0.16 0.15 0.20 0.18 0.14 0.15 0.18 0.20 0.19 0.18 0.24 0.34 0.41
1.24 1.22 1.15 1.07 1.01 0.92 0.89 0.87 0.79 0.68 0.61 0.57 0.53 0.50 0.48 0.43 0.40 0.36 0.35 0.38 0.36 0.34 0.34 0.37 0.43 0.29 0.24 0.31 0.21 0.19 0.22 0.15 0.14 0.18 0.18 0.15 0.20 0.16 0.15 0.12 0.09 0.10 0.15 0.17 0.19 0.25 0.24
1.19 1.19 1.14 1.10 1.04 0.93 0.88 0.82 0.75 0.67 0.59 0.55 0.52 0.48 0.44 0.40 0.36 0.36 0.38 0.39 0.38 0.39 0.37 0.39 0.34 0.20 0.26 0.21 0.17 0.20 0.19 0.18 0.14 0.17 0.14 0.16 0.16 0.13 0.16 0.13 0.06 0.07 0.09 0.15 0.15 0.22 0.28
1.18 1.15 1.15 1.13 1.02 0.97 0.86 0.76 0.71 0.63 0.57 0.54 0.49 0.46 0.42 0.39 0.35 0.38 0.37 0.33 0.23 0.34 0.22 0.14 0.16 0.16 0.19 0.20 0.17 0.15 0.17 0.15 0.15 0.13 0.10 0.14 0.10 0.10 0.11 0.13 0.13 0.12 0.12 0.10 0.13 0.16 0.23
1.14 1.13 1.11 1.06 1.04 0.94 0.82 0.73 0.67 0.58 0.54 0.51 0.46 0.42 0.40 0.37 0.35 0.40 0.36 0.22 0.22 0.24 0.18 0.22 0.22 0.23 0.22 0.19 0.14 0.16 0.18 0.15 0.14 0.11 0.13 0.12 0.10 0.14 0.15 0.14 0.11 0.09 0.10 0.10 0.11 0.13 0.15
1.09 1.07 1.06 1.05 0.99 0.87 0.78 0.71 0.64 0.56 0.53 0.48 0.44 0.42 0.39 0.35 0.39 0.41 0.31 0.26 0.32 0.31 0.21 0.21 0.21 0.19 0.15 0.16 0.14 0.16 0.21 0.18 0.14 0.13 0.14 0.12 0.14 0.17 0.14 0.13 0.12 0.11 0.11 0.09 0.10 0.12 0.13
1.05 1.01 1.02 1.03 0.97 0.87 0.76 0.68 0.60 0.54 0.52 0.48 0.43 0.40 0.37 0.39 0.40 0.36 0.33 0.31 0.34 0.34 0.19 0.19 0.21 0.24 0.17 0.16 0.16 0.18 0.24 0.17 0.15 0.14 0.18 0.17 0.19 0.20 0.20 0.17 0.16 0.12 0.13 0.12 0.12 0.12 0.10
1.00 0.96 0.96 0.94 0.89 0.80 0.72 0.63 0.57 0.54 0.53 0.46 0.42 0.39 0.35 0.37 0.37 0.32 0.31 0.34 0.35 0.37 0.12 0.19 0.16 0.18 0.16 0.14 0.15 0.16 0.19 0.17 0.13 0.18 0.19 0.14 0.17 0.16 0.16 0.16 0.19 0.18 0.16 0.15 0.12 0.12 0.14
0.94 0.90 0.90 0.89 0.81 0.73 0.67 0.61 0.56 0.53 0.50 0.44 0.41 0.37 0.41 0.43 0.44 0.35 0.37 0.35 0.34 0.21 0.15 0.15 0.15 0.14 0.13 0.15 0.15 0.17 0.17 0.20 0.19 0.21 0.20 0.17 0.21 0.20 0.21 0.24 0.28 0.28 0.23 0.19 0.18 0.13 0.11
0.90 0.88 0.89 0.84 0.77 0.72 0.63 0.56 0.55 0.52 0.47 0.42 0.39 0.36 0.39 0.43 0.42 0.40 0.36 0.36 0.19 0.17 0.15 0.13 0.14 0.13 0.13 0.14 0.14 0.16 0.15 0.16 0.17 0.18 0.17 0.16 0.16 0.21 0.27 0.25 0.25 0.26 0.25 0.13 0.13 0.11 0.10
0.83 0.81 0.80 0.77 0.73 0.66 0.63 0.60 0.55 0.50 0.44 0.40 0.38 0.38 0.41 0.42 0.44 0.39 0.39 0.27 0.14 0.15 0.13 0.17 0.13 0.13 0.13 0.14 0.15 0.15 0.16 0.14 0.18 0.23 0.17 0.15 0.10 0.21 0.25 0.26 0.29 0.32 0.27 0.16 0.11 0.11 0.09
0.80 0.79 0.76 0.74 0.64 0.59 0.56 0.55 0.53 0.46 0.42 0.38 0.38 0.41 0.44 0.45 0.41 0.39 0.32 0.20 0.19 0.17 0.18 0.14 0.13 0.13 0.13 0.14 0.15 0.16 0.16 0.17 0.22 0.22 0.20 0.18 0.11 0.22 0.29 0.31 0.32 0.31 0.22 0.22 0.17 0.17 0.13
0.77 0.73 0.67 0.63 0.59 0.54 0.60 0.58 0.51 0.47 0.42 0.39 0.40 0.40 0.41 0.42 0.40 0.37 0.28 0.22 0.19 0.19 0.16 0.17 0.13 0.14 0.12 0.14 0.14 0.15 0.16 0.21 0.21 0.25 0.30 0.20 0.14 0.21 0.27 0.33 0.35 0.37 0.32 0.20 0.18 0.13 0.12
0.74 0.71 0.67 0.65 0.65 0.61 0.61 0.57 0.50 0.43 0.39 0.41 0.40 0.33 0.48 0.38 0.35 0.32 0.22 0.25 0.22 0.22 0.19 0.17 0.16 0.15 0.16 0.15 0.17 0.16 0.16 0.21 0.26 0.22 0.24 0.22 0.23 0.17 0.27 0.34 0.31 0.33 0.30 0.28 0.22 0.14 0.13
0.72 0.66 0.61 0.57 0.58 0.55 0.52 0.50 0.47 0.41 0.38 0.38 0.39 0.27 0.50 0.36 0.25 0.30 0.25 0.23 0.22 0.22 0.23 0.20 0.20 0.18 0.18 0.19 0.17 0.16 0.16 0.19 0.23 0.26 0.19 0.24 0.22 0.18 0.22 0.33 0.38 0.35 0.34 0.31 0.17 0.15 0.15
0.70 0.67 0.64 0.60 0.61 0.60 0.55 0.48 0.46 0.42 0.42 0.42 0.31 0.35 0.47 0.33 0.21 0.25 0.28 0.24 0.20 0.21 0.20 0.21 0.20 0.21 0.22 0.18 0.16 0.16 0.17 0.20 0.25 0.25 0.21 0.24 0.19 0.17 0.16 0.22 0.26 0.25 0.27 0.31 0.30 0.24 0.18
0.70 0.69 0.67 0.62 0.63 0.59 0.56 0.51 0.50 0.42 0.45 0.46 0.35 0.26 0.32 0.27 0.30 0.29 0.28 0.23 0.21 0.21 0.20 0.19 0.17 0.20 0.18 0.19 0.21 0.16 0.15 0.19 0.22 0.22 0.24 0.26 0.24 0.22 0.17 0.21 0.25 0.24 0.29 0.34 0.30 0.22 0.16
0.66 0.67 0.67 0.64 0.62 0.58 0.54 0.49 0.50 0.44 0.45 0.45 0.35 0.30 0.35 0.24 0.23 0.25 0.27 0.22 0.20 0.19 0.20 0.20 0.19 0.17 0.18 0.17 0.19 0.15 0.17 0.17 0.20 0.23 0.22 0.26 0.20 0.23 0.23 0.24 0.24 0.29 0.29 0.35 0.28 0.29 0.23
0.66 0.65 0.63 0.61 0.58 0.54 0.51 0.51 0.48 0.44 0.45 0.38 0.27 0.30 0.32 0.28 0.32 0.27 0.27 0.22 0.20 0.20 0.19 0.17 0.16 0.18 0.18 0.16 0.18 0.14 0.16 0.16 0.16 0.17 0.19 0.25 0.22 0.23 0.19 0.24 0.23 0.21 0.33 0.38 0.30 0.28 0.31
0.66 0.63 0.60 0.59 0.56 0.57 0.53 0.52 0.47 0.43 0.42 0.33 0.40 0.38 0.35 0.29 0.29 0.26 0.24 0.22 0.20 0.20 0.19 0.19 0.17 0.16 0.16 0.18 0.20 0.19 0.19 0.16 0.15 0.16 0.19 0.24 0.25 0.22 0.17 0.22 0.23 0.25 0.36 0.36 0.42 0.38 0.37
0.66 0.63 0.63 0.62 0.57 0.56 0.55 0.61 0.54 0.48 0.46 0.48 0.45 0.39 0.28 0.23 0.25 0.23 0.23 0.24 0.22 0.19 0.17 0.19 0.21 0.18 0.20 0.24 0.23 0.19 0.16 0.16 0.21 0.21 0.27 0.24 0.25 0.26 0.20 0.23 0.17 0.34 0.39 0.36 0.36 0.45 0.47
0.66 0.65 0.61 0.61 0.58 0.58 0.57 0.59 0.59 0.54 0.46 0.46 0.48 0.38 0.32 0.24 0.27 0.23 0.23 0.22 0.20 0.20 0.18 0.17 0.18 0.22 0.26 0.22 0.15 0.12 0.12 0.15 0.22 0.27 0.26 0.27 0.27 0.24 0.19 0.17 0.23 0.33 0.33 0.31 0.31 0.35 0.49
0.64 0.65 0.64 0.60 0.58 0.57 0.57 0.57 0.57 0.55 0.52 0.46 0.47 0.43 0.37 0.27 0.25 0.25 0.22 0.22 0.18 0.18 0.19 0.21 0.25 0.28 0.26 0.19 0.16 0.13 0.13 0.16 0.17 0.21 0.32 0.32 0.29 0.28 0.23 0.20 0.16 0.30 0.34 0.38 0.39 0.31 0.48
0.63 0.64 0.63 0.61 0.59 0.58 0.59 0.60 0.56 0.54 0.53 0.47 0.44 0.43 0.37 0.28 0.30 0.28 0.21 0.21 0.23 0.20 0.17 0.22 0.24 0.23 0.25 0.19 0.16 0.16 0.16 0.23 0.18 0.20 0.21 0.22 0.23 0.23 0.24 0.22 0.26 0.37 0.35 0.37 0.24 0.29 0.50
0.61 0.64 0.63 0.61 0.60 0.59 0.60 0.60 0.57 0.55 0.51 0.48 0.43 0.48 0.38 0.30 0.30 0.32 0.27 0.25 0.25 0.22 0.19 0.28 0.23 0.22 0.21 0.18 0.17 0.18 0.20 0.23 0.22 0.24 0.25 0.23 0.21 0.22 0.24 0.21 0.19 0.38 0.33 0.28 0.38 0.43 0.50
0.56 0.59 0.59 0.59 0.60 0.60 0.59 0.57 0.53 0.50 0.48 0.47 0.41 0.51 0.46 0.35 0.33 0.40 0.37 0.36 0.29 0.28 0.27 0.29 0.24 0.27 0.26 0.22 0.25 0.24 0.21 0.23 0.21 0.18 0.32 0.24 0.29 0.26 0.29 0.27 0.38 0.40 0.38 0.43 0.47 0.43 0.49

GFSGBSN_prec_pwat_123.txt.gz
Precipitable_Water
1.26 1.27 1.21 1.16 1.11 1.07 0.97 0.91 0.83 0.80 0.78 0.74 0.68 0.62 0.54 0.49 0.45 0.40 0.37 0.36 0.35 0.36 0.37 0.39 0.38 0.36 0.35 0.30 0.22 0.38 0.33 0.27 0.29 0.27 0.25 0.24 0.19 0.13 0.11 0.16 0.17 0.18 0.22 0.29 0.34 0.36 0.41
1.27 1.27 1.23 1.22 1.14 1.06 0.99 0.94 0.90 0.86 0.81 0.75 0.68 0.61 0.54 0.49 0.44 0.39 0.38 0.37 0.37 0.37 0.39 0.40 0.40 0.37 0.32 0.19 0.31 0.30 0.28 0.22 0.22 0.22 0.19 0.20 0.20 0.24 0.17 0.11 0.11 0.16 0.17 0.17 0.19 0.25 0.32
1.22 1.22 1.23 1.25 1.18 1.07 1.00 0.97 0.91 0.84 0.81 0.77 0.68 0.61 0.54 0.48 0.44 0.40 0.38 0.38 0.39 0.38 0.41 0.38 0.40 0.42 0.29 0.23 0.31 0.28 0.23 0.21 0.20 0.18 0.13 0.15 0.14 0.14 0.17 0.11 0.11 0.12 0.12 0.15 0.16 0.20 0.21
1.18 1.16 1.19 1.22 1.18 1.08 1.04 0.98 0.89 0.83 0.81 0.78 0.70 0.60 0.56 0.50 0.45 0.42 0.43 0.46 0.47 0.46 0.44 0.48 0.49 0.44 0.23 0.33 0.33 0.22 0.21 0.19 0.17 0.16 0.17 0.18 0.18 0.13 0.16 0.18 0.11 0.09 0.07 0.05 0.07 0.14 0.17
1.17 1.15 1.13 1.16 1.16 1.11 1.03 0.99 0.92 0.82 0.78 0.76 0.66 0.60 0.55 0.51 0.46 0.46 0.48 0.49 0.46 0.43 0.44 0.47 0.44 0.38 0.24 0.33 0.21 0.21 0.21 0.16 0.15 0.15 0.18 0.17 0.18 0.16 0.17 0.12 0.09 0.10 0.05 0.06 0.05 0.08 0.10
1.13 1.12 1.11 1.14 1.14 1.09 1.08 1.05 0.97 0.94 0.84 0.72 0.65 0.62 0.54 0.49 0.44 0.45 0.48 0.48 0.46 0.45 0.46 0.46 0.40 0.27 0.27 0.23 0.20 0.17 0.20 0.17 0.16 0.15 0.12 0.14 0.17 0.15 0.15 0.13 0.08 0.09 0.10 0.09 0.08 0.08 0.12
1.12 1.10 1.06 1.07 1.10 1.12 1.10 1.04 1.01 0.94 0.82 0.69 0.62 0.57 0.50 0.44 0.42 0.47 0.47 0.42 0.32 0.34 0.33 0.19 0.21 0.18 0.20 0.21 0.20 0.18 0.19 0.16 0.16 0.14 0.11 0.13 0.10 0.09 0.11 0.14 0.14 0.13 0.12 0.11 0.10 0.11 0.13
1.14 1.08 1.07 1.07 1.09 1.13 1.10 1.04 1.00 0.93 0.75 0.66 0.59 0.53 0.48 0.42 0.43 0.45 0.42 0.31 0.30 0.32 0.21 0.26 0.24 0.23 0.22 0.19 0.15 0.17 0.20 0.15 0.13 0.09 0.12 0.12 0.10 0.15 0.17 0.16 0.15 0.14 0.12 0.10 0.12 0.12 0.13
1.13 1.09 1.05 1.07 1.10 1.10 1.08 1.06 0.99 0.85 0.70 0.63 0.55 0.50 0.45 0.40 0.44 0.44 0.36 0.32 0.37 0.35 0.22 0.25 0.24 0.21 0.16 0.17 0.15 0.16 0.18 0.18 0.12 0.11 0.12 0.13 0.15 0.20 0.18 0.14 0.14 0.14 0.14 0.14 0.14 0.14 0.14
1.10 1.13 1.02 1.03 1.05 1.02 1.03 1.00 0.91 0.78 0.67 0.63 0.54 0.48 0.41 0.42 0.45 0.45 0.38 0.38 0.37 0.38 0.21 0.21 0.23 0.25 0.19 0.16 0.16 0.19 0.21 0.16 0.14 0.11 0.14 0.15 0.20 0.17 0.13 0.13 0.15 0.13 0.18 0.19 0.17 0.16 0.11
1.04 1.02 0.95 0.92 0.99 0.98 0.98 0.89 0.80 0.75 0.65 0.61 0.51 0.43 0.39 0.46 0.45 0.38 0.40 0.38 0.37 0.42 0.13 0.25 0.21 0.23 0.18 0.15 0.15 0.17 0.20 0.17 0.13 0.14 0.15 0.15 0.17 0.16 0.13 0.16 0.21 0.20 0.24 0.22 0.21 0.18 0.18
1.00 0.96 0.90 0.94 0.95 0.91 0.90 0.87 0.78 0.67 0.64 0.58 0.47 0.43 0.45 0.47 0.47 0.43 0.39 0.41 0.42 0.21 0.14 0.17 0.18 0.16 0.14 0.16 0.17 0.19 0.18 0.20 0.19 0.18 0.18 0.18 0.22 0.17 0.18 0.20 0.24 0.26 0.25 0.23 0.20 0.18 0.15
0.93 0.95 0.89 0.88 0.89 0.88 0.84 0.76 0.69 0.63 0.59 0.51 0.47 0.42 0.46 0.52 0.42 0.50 0.41 0.41 0.21 0.16 0.20 0.16 0.16 0.16 0.13 0.15 0.16 0.17 0.16 0.16 0.14 0.11 0.12 0.13 0.15 0.18 0.21 0.18 0.21 0.26 0.25 0.18 0.14 0.13 0.12
0.93 0.89 0.89 0.87 0.87 0.85 0.77 0.67 0.64 0.63 0.55 0.48 0.44 0.41 0.49 0.48 0.52 0.43 0.46 0.27 0.15 0.21 0.17 0.20 0.17 0.14 0.12 0.16 0.16 0.16 0.16 0.14 0.19 0.17 0.14 0.13 0.10 0.17 0.19 0.21 0.22 0.24 0.25 0.19 0.14 0.13 0.12
0.90 0.89 0.88 0.87 0.84 0.79 0.74 0.71 0.71 0.58 0.47 0.44 0.41 0.46 0.47 0.50 0.42 0.44 0.34 0.18 0.20 0.20 0.21 0.17 0.13 0.13 0.15 0.17 0.17 0.16 0.15 0.15 0.17 0.18 0.15 0.15 0.12 0.19 0.19 0.23 0.35 0.31 0.28 0.37 0.26 0.25 0.16
0.84 0.83 0.83 0.82 0.79 0.71 0.66 0.60 0.55 0.53 0.45 0.42 0.45 0.46 0.47 0.50 0.38 0.42 0.29 0.21 0.23 0.24 0.21 0.17 0.12 0.15 0.14 0.16 0.15 0.15 0.14 0.18 0.18 0.22 0.25 0.20 0.12 0.15 0.18 0.23 0.34 0.34 0.41 0.27 0.26 0.15 0.10
0.79 0.79 0.78 0.77 0.73 0.69 0.65 0.60 0.54 0.44 0.46 0.45 0.45 0.35 0.48 0.46 0.37 0.32 0.19 0.22 0.25 0.25 0.21 0.16 0.17 0.17 0.17 0.16 0.17 0.15 0.15 0.17 0.21 0.22 0.23 0.20 0.18 0.12 0.17 0.17 0.21 0.27 0.27 0.32 0.34 0.24 0.14
0.76 0.74 0.71 0.68 0.70 0.60 0.64 0.58 0.51 0.48 0.41 0.46 0.45 0.28 0.53 0.45 0.21 0.28 0.19 0.31 0.27 0.25 0.24 0.20 0.20 0.18 0.17 0.18 0.16 0.15 0.15 0.16 0.23 0.22 0.18 0.22 0.17 0.11 0.13 0.20 0.28 0.30 0.28 0.32 0.24 0.23 0.24
0.71 0.69 0.68 0.65 0.65 0.65 0.64 0.57 0.56 0.47 0.47 0.46 0.32 0.35 0.51 0.38 0.18 0.24 0.28 0.27 0.26 0.22 0.23 0.23 0.21 0.22 0.22 0.18 0.14 0.17 0.16 0.20 0.19 0.22 0.21 0.21 0.16 0.12 0.12 0.15 0.24 0.24 0.29 0.30 0.33 0.31 0.20
0.69 0.67 0.64 0.63 0.66 0.64 0.58 0.54 0.48 0.43 0.47 0.46 0.38 0.28 0.34 0.29 0.28 0.29 0.29 0.27 0.24 0.23 0.23 0.24 0.21 0.20 0.18 0.16 0.20 0.18 0.17 0.18 0.19 0.21 0.24 0.23 0.19 0.19 0.14 0.16 0.21 0.22 0.25 0.29 0.31 0.26 0.21
0.68 0.67 0.63 0.61 0.64 0.60 0.57 0.54 0.48 0.44 0.48 0.49 0.40 0.29 0.33 0.22 0.19 0.25 0.32 0.27 0.23 0.23 0.24 0.21 0.19 0.18 0.17 0.15 0.16 0.16 0.17 0.16 0.15 0.18 0.20 0.18 0.13 0.17 0.21 0.23 0.24 0.25 0.26 0.33 0.33 0.32 0.24
0.68 0.69 0.66 0.64 0.63 0.60 0.59 0.52 0.46 0.46 0.52 0.45 0.30 0.34 0.35 0.31 0.34 0.25 0.26 0.24 0.24 0.23 0.23 0.21 0.19 0.18 0.18 0.15 0.16 0.14 0.16 0.14 0.12 0.13 0.13 0.16 0.16 0.20 0.16 0.22 0.24 0.24 0.36 0.37 0.39 0.36 0.33
0.65 0.66 0.66 0.64 0.63 0.59 0.58 0.54 0.52 0.44 0.42 0.40 0.42 0.39 0.35 0.30 0.27 0.26 0.25 0.25 0.23 0.24 0.24 0.22 0.20 0.17 0.14 0.16 0.19 0.19 0.18 0.15 0.13 0.12 0.13 0.20 0.20 0.18 0.14 0.22 0.23 0.27 0.31 0.34 0.37 0.40 0.37
0.67 0.65 0.64 0.64 0.61 0.60 0.55 0.56 0.51 0.44 0.43 0.46 0.46 0.38 0.27 0.22 0.27 0.27 0.27 0.28 0.27 0.24 0.19 0.22 0.22 0.18 0.19 0.23 0.21 0.17 0.14 0.14 0.15 0.19 0.25 0.21 0.21 0.22 0.19 0.22 0.14 0.32 0.34 0.37 0.38 0.40 0.42
0.67 0.67 0.63 0.63 0.59 0.57 0.58 0.57 0.51 0.42 0.44 0.46 0.48 0.41 0.33 0.24 0.29 0.28 0.25 0.25 0.24 0.24 0.21 0.19 0.19 0.21 0.24 0.21 0.14 0.11 0.12 0.14 0.18 0.26 0.28 0.31 0.27 0.23 0.19 0.20 0.22 0.31 0.30 0.32 0.32 0.35 0.43
0.66 0.66 0.65 0.64 0.63 0.58 0.57 0.59 0.61 0.53 0.50 0.51 0.51 0.50 0.38 0.28 0.28 0.30 0.25 0.24 0.21 0.19 0.19 0.20 0.25 0.28 0.26 0.20 0.14 0.11 0.10 0.14 0.15 0.19 0.31 0.29 0.32 0.23 0.21 0.19 0.18 0.28 0.34 0.34 0.37 0.29 0.43
0.66 0.66 0.66 0.64 0.62 0.59 0.58 0.57 0.58 0.59 0.55 0.47 0.45 0.48 0.40 0.27 0.31 0.31 0.25 0.24 0.26 0.21 0.17 0.20 0.25 0.24 0.26 0.16 0.14 0.13 0.13 0.19 0.15 0.18 0.20 0.21 0.20 0.19 0.19 0.20 0.27 0.34 0.34 0.34 0.21 0.26 0.44
0.65 0.65 0.66 0.65 0.62 0.60 0.57 0.57 0.58 0.58 0.56 0.50 0.43 0.46 0.37 0.30 0.31 0.34 0.34 0.27 0.26 0.24 0.19 0.25 0.23 0.26 0.22 0.15 0.17 0.17 0.17 0.21 0.21 0.23 0.23 0.23 0.21 0.20 0.22 0.20 0.17 0.35 0.32 0.24 0.33 0.43 0.46
0.62 0.64 0.64 0.65 0.65 0.62 0.60 0.58 0.60 0.59 0.55 0.53 0.39 0.48 0.49 0.35 0.32 0.38 0.36 0.35 0.34 0.32 0.26 0.26 0.24 0.26 0.26 0.23 0.25 0.23 0.20 0.20 0.19 0.16 0.27 0.21 0.26 0.23 0.26 0.25 0.36 0.38 0.36 0.39 0.41 0.42 0.43

GFSGBSN_prec_pwat_126.txt.gz
Precipitable_Water
1.39 1.35 1.31 1.29 1.25 1.21 1.12 1.05 0.96 0.88 0.82 0.81 0.77 0.69 0.66 0.62 0.58 0.52 0.47 0.42 0.38 0.37 0.38 0.39 0.41 0.43 0.41 0.32 0.24 0.33 0.35 0.30 0.28 0.25 0.21 0.20 0.19 0.19 0.15 0.17 0.17 0.14 0.17 0.19 0.20 0.21 0.22
1.42 1.39 1.32 1.30 1.25 1.21 1.17 1.09 0.98 0.91 0.88 0.85 0.79 0.71 0.65 0.62 0.56 0.51 0.46 0.42 0.38 0.40 0.40 0.42 0.44 0.46 0.39 0.21 0.30 0.31 0.29 0.24 0.21 0.20 0.20 0.20 0.19 0.18 0.14 0.13 0.11 0.11 0.12 0.11 0.12 0.14 0.17
1.38 1.35 1.31 1.25 1.21 1.19 1.15 1.09 1.02 0.94 0.89 0.85 0.79 0.76 0.66 0.63 0.58 0.50 0.46 0.43 0.41 0.43 0.45 0.48 0.51 0.52 0.36 0.25 0.32 0.32 0.26 0.23 0.22 0.19 0.15 0.17 0.17 0.13 0.13 0.09 0.15 0.13 0.09 0.08 0.06 0.06 0.08
1.33 1.28 1.24 1.20 1.13 1.12 1.09 1.04 1.02 0.94 0.87 0.85 0.79 0.75 0.71 0.65 0.56 0.51 0.49 0.47 0.48 0.53 0.51 0.52 0.58 0.53 0.33 0.38 0.38 0.27 0.24 0.21 0.21 0.20 0.17 0.18 0.20 0.16 0.15 0.16 0.16 0.12 0.10 0.06 0.07 0.09 0.09
1.27 1.26 1.23 1.17 1.13 1.09 1.06 1.05 0.97 0.95 0.90 0.86 0.79 0.71 0.66 0.58 0.52 0.49 0.51 0.55 0.52 0.53 0.51 0.53 0.52 0.44 0.29 0.37 0.28 0.24 0.24 0.18 0.18 0.19 0.18 0.20 0.19 0.16 0.17 0.14 0.12 0.12 0.08 0.09 0.08 0.13 0.12
1.31 1.24 1.20 1.17 1.12 1.07 1.08 1.01 1.00 0.93 0.94 0.89 0.81 0.82 0.72 0.64 0.52 0.46 0.55 0.51 0.53 0.52 0.54 0.54 0.51 0.34 0.34 0.28 0.27 0.22 0.21 0.20 0.17 0.16 0.15 0.15 0.17 0.14 0.15 0.13 0.08 0.10 0.10 0.10 0.09 0.11 0.14
1.28 1.26 1.20 1.18 1.13 1.10 1.04 1.01 0.97 0.97 0.99 0.95 0.94 0.90 0.72 0.60 0.55 0.55 0.49 0.46 0.39 0.41 0.40 0.28 0.30 0.25 0.25 0.25 0.22 0.20 0.21 0.18 0.17 0.14 0.11 0.14 0.10 0.09 0.13 0.15 0.15 0.14 0.13 0.11 0.11 0.15 0.15
1.27 1.22 1.25 1.17 1.12 1.08 1.03 1.00 0.97 1.01 1.02 1.03 0.95 0.83 0.67 0.57 0.47 0.49 0.49 0.37 0.37 0.39 0.27 0.31 0.29 0.25 0.26 0.22 0.17 0.19 0.21 0.16 0.14 0.11 0.13 0.12 0.11 0.14 0.16 0.15 0.13 0.12 0.10 0.09 0.11 0.14 0.17
1.17 1.21 1.19 1.17 1.15 1.07 1.04 0.99 1.03 1.03 1.01 0.98 0.87 0.75 0.63 0.52 0.52 0.49 0.39 0.36 0.43 0.40 0.25 0.30 0.29 0.27 0.20 0.21 0.17 0.18 0.21 0.18 0.13 0.12 0.12 0.11 0.14 0.18 0.16 0.13 0.12 0.11 0.11 0.13 0.14 0.14 0.14
1.07 1.14 1.18 1.13 1.10 1.05 1.03 1.03 1.02 0.98 0.95 0.90 0.74 0.65 0.54 0.50 0.49 0.51 0.41 0.47 0.43 0.41 0.21 0.23 0.25 0.25 0.22 0.21 0.18 0.21 0.22 0.17 0.15 0.13 0.14 0.13 0.19 0.16 0.14 0.13 0.13 0.09 0.17 0.18 0.15 0.15 0.12
1.08 1.13 1.13 1.12 1.10 1.02 1.00 1.00 1.04 0.96 0.90 0.76 0.67 0.57 0.52 0.53 0.55 0.45 0.49 0.49 0.43 0.44 0.16 0.29 0.28 0.30 0.22 0.18 0.17 0.19 0.22 0.18 0.15 0.14 0.14 0.13 0.15 0.14 0.11 0.12 0.17 0.15 0.19 0.18 0.19 0.18 0.19
1.11 1.10 1.04 1.06 1.06 0.99 0.98 1.01 1.00 0.91 0.80 0.70 0.60 0.53 0.50 0.54 0.57 0.57 0.51 0.44 0.44 0.23 0.16 0.23 0.23 0.21 0.18 0.18 0.18 0.19 0.19 0.21 0.21 0.16 0.15 0.14 0.17 0.14 0.14 0.16 0.18 0.19 0.20 0.22 0.21 0.21 0.15
1.06 1.05 1.08 1.01 1.00 0.98 0.93 0.95 0.92 0.83 0.72 0.62 0.54 0.47 0.50 0.53 0.48 0.56 0.46 0.44 0.24 0.19 0.24 0.20 0.20 0.20 0.17 0.17 0.17 0.18 0.17 0.15 0.13 0.10 0.10 0.11 0.14 0.17 0.19 0.13 0.16 0.19 0.20 0.16 0.13 0.13 0.13
1.01 0.98 1.04 0.96 0.92 0.98 0.95 0.90 0.84 0.73 0.69 0.56 0.51 0.46 0.48 0.62 0.56 0.56 0.47 0.31 0.19 0.23 0.21 0.23 0.21 0.19 0.14 0.17 0.17 0.18 0.16 0.14 0.17 0.16 0.12 0.09 0.08 0.14 0.17 0.17 0.15 0.17 0.27 0.21 0.14 0.14 0.16
0.91 1.01 0.94 0.91 0.89 0.90 0.89 0.87 0.78 0.67 0.56 0.50 0.48 0.40 0.48 0.47 0.57 0.49 0.37 0.21 0.18 0.24 0.25 0.21 0.20 0.16 0.17 0.18 0.17 0.17 0.16 0.15 0.16 0.18 0.13 0.11 0.11 0.16 0.16 0.18 0.19 0.21 0.23 0.32 0.25 0.25 0.20
0.90 0.88 0.93 0.88 0.89 0.88 0.86 0.77 0.73 0.60 0.54 0.48 0.42 0.46 0.42 0.56 0.46 0.45 0.33 0.19 0.25 0.26 0.24 0.21 0.17 0.17 0.16 0.18 0.17 0.16 0.14 0.17 0.17 0.21 0.22 0.17 0.10 0.14 0.15 0.17 0.24 0.27 0.29 0.22 0.24 0.17 0.15
0.82 0.82 0.83 0.84 0.84 0.83 0.81 0.75 0.64 0.54 0.51 0.53 0.47 0.38 0.47 0.57 0.43 0.38 0.21 0.23 0.25 0.27 0.26 0.22 0.20 0.17 0.18 0.17 0.17 0.15 0.15 0.17 0.20 0.19 0.20 0.18 0.15 0.12 0.13 0.14 0.18 0.23 0.22 0.28 0.29 0.25 0.19
0.79 0.79 0.79 0.79 0.79 0.77 0.73 0.68 0.63 0.60 0.51 0.48 0.45 0.33 0.55 0.44 0.26 0.28 0.21 0.30 0.29 0.26 0.27 0.24 0.22 0.20 0.18 0.19 0.16 0.16 0.15 0.16 0.20 0.20 0.17 0.19 0.15 0.10 0.10 0.20 0.25 0.26 0.23 0.28 0.22 0.18 0.24
0.75 0.74 0.74 0.74 0.71 0.70 0.68 0.62 0.52 0.48 0.50 0.48 0.38 0.40 0.56 0.43 0.17 0.21 0.29 0.29 0.27 0.26 0.25 0.22 0.21 0.22 0.22 0.18 0.15 0.17 0.18 0.20 0.19 0.18 0.17 0.19 0.14 0.09 0.08 0.15 0.22 0.20 0.22 0.28 0.32 0.32 0.23
0.71 0.70 0.70 0.70 0.67 0.71 0.68 0.63 0.55 0.50 0.53 0.54 0.40 0.32 0.37 0.35 0.32 0.26 0.26 0.24 0.25 0.29 0.26 0.25 0.24 0.23 0.20 0.18 0.19 0.18 0.18 0.20 0.20 0.18 0.21 0.21 0.16 0.12 0.10 0.13 0.19 0.19 0.24 0.34 0.34 0.27 0.25
0.68 0.66 0.67 0.66 0.66 0.63 0.58 0.51 0.48 0.46 0.58 0.51 0.41 0.34 0.33 0.21 0.19 0.30 0.31 0.27 0.24 0.24 0.25 0.25 0.22 0.20 0.18 0.16 0.16 0.15 0.16 0.16 0.16 0.17 0.15 0.16 0.10 0.10 0.15 0.18 0.22 0.24 0.30 0.33 0.31 0.32 0.26
0.66 0.64 0.64 0.66 0.66 0.65 0.63 0.54 0.54 0.52 0.54 0.47 0.34 0.33 0.35 0.31 0.29 0.25 0.31 0.27 0.27 0.26 0.25 0.22 0.19 0.21 0.20 0.16 0.16 0.12 0.14 0.14 0.12 0.12 0.11 0.12 0.09 0.16 0.14 0.20 0.23 0.25 0.29 0.32 0.34 0.33 0.31
0.66 0.65 0.63 0.64 0.62 0.59 0.56 0.49 0.48 0.46 0.49 0.42 0.42 0.42 0.36 0.31 0.30 0.24 0.24 0.28 0.24 0.27 0.27 0.28 0.24 0.20 0.17 0.18 0.19 0.19 0.18 0.15 0.13 0.10 0.10 0.15 0.16 0.16 0.11 0.19 0.22 0.24 0.28 0.29 0.33 0.37 0.34
0.66 0.67 0.64 0.63 0.61 0.58 0.57 0.53 0.48 0.46 0.50 0.44 0.45 0.39 0.30 0.25 0.29 0.28 0.26 0.28 0.27 0.27 0.24 0.26 0.24 0.19 0.20 0.23 0.18 0.16 0.12 0.13 0.15 0.20 0.23 0.19 0.23 0.21 0.15 0.20 0.14 0.28 0.35 0.32 0.31 0.37 0.40
0.65 0.65 0.64 0.64 0.63 0.57 0.57 0.54 0.47 0.44 0.56 0.47 0.44 0.40 0.31 0.26 0.29 0.29 0.29 0.29 0.30 0.29 0.24 0.22 0.21 0.21 0.23 0.21 0.15 0.09 0.11 0.12 0.17 0.24 0.28 0.31 0.29 0.22 0.20 0.18 0.20 0.29 0.28 0.26 0.27 0.32 0.39
0.67 0.65 0.64 0.63 0.61 0.59 0.57 0.56 0.49 0.45 0.51 0.49 0.46 0.49 0.33 0.26 0.28 0.31 0.29 0.28 0.24 0.24 0.23 0.22 0.25 0.27 0.25 0.19 0.14 0.09 0.07 0.12 0.14 0.18 0.27 0.28 0.30 0.22 0.21 0.16 0.15 0.26 0.30 0.31 0.38 0.26 0.40
0.68 0.66 0.64 0.63 0.57 0.58 0.58 0.56 0.52 0.48 0.46 0.44 0.45 0.51 0.41 0.30 0.36 0.35 0.27 0.26 0.27 0.23 0.18 0.22 0.24 0.23 0.26 0.17 0.12 0.11 0.11 0.19 0.15 0.15 0.18 0.19 0.22 0.19 0.20 0.18 0.23 0.31 0.30 0.31 0.18 0.23 0.40
0.68 0.66 0.65 0.64 0.62 0.58 0.59 0.60 0.60 0.55 0.49 0.47 0.48 0.51 0.40 0.31 0.34 0.38 0.36 0.30 0.27 0.24 0.18 0.24 0.23 0.24 0.21 0.16 0.14 0.15 0.15 0.18 0.18 0.21 0.20 0.18 0.18 0.18 0.21 0.17 0.14 0.32 0.28 0.21 0.30 0.37 0.42
0.67 0.67 0.66 0.64 0.63 0.59 0.58 0.58 0.59 0.59 0.56 0.49 0.41 0.48 0.44 0.32 0.30 0.39 0.38 0.39 0.37 0.33 0.25 0.25 0.25 0.24 0.24 0.20 0.21 0.20 0.17 0.19 0.18 0.13 0.25 0.18 0.22 0.20 0.22 0.21 0.32 0.34 0.32 0.36 0.39 0.37 0.41

GFSGBSN_prec_pwat_132.txt.gz
Precipitable_Water
1.45 1.46 1.44 1.41 1.38 1.36 1.34 1.30 1.29 1.23 1.17 1.09 1.02 0.94 0.86 0.79 0.73 0.71 0.62 0.54 0.50 0.46 0.44 0.42 0.44 0.46 0.44 0.32 0.30 0.38 0.38 0.37 0.33 0.31 0.26 0.22 0.20 0.19 0.15 0.17 0.17 0.14 0.14 0.15 0.15 0.14 0.12
1.42 1.39 1.40 1.40 1.39 1.39 1.38 1.33 1.33 1.32 1.24 1.15 1.07 0.98 0.93 0.85 0.77 0.71 0.69 0.56 0.51 0.51 0.49 0.47 0.49 0.51 0.37 0.25 0.40 0.41 0.37 0.34 0.30 0.25 0.21 0.21 0.20 0.20 0.15 0.15 0.14 0.16 0.16 0.16 0.16 0.13 0.12
1.43 1.43 1.40 1.37 1.38 1.36 1.36 1.34 1.33 1.29 1.28 1.17 1.10 0.98 0.93 0.84 0.77 0.74 0.66 0.60 0.52 0.52 0.52 0.48 0.53 0.52 0.35 0.29 0.43 0.41 0.38 0.33 0.32 0.26 0.21 0.23 0.23 0.20 0.19 0.16 0.21 0.19 0.14 0.13 0.12 0.13 0.12
1.21 1.28 1.38 1.37 1.35 1.34 1.34 1.31 1.31 1.29 1.24 1.18 1.12 0.99 0.85 0.76 0.73 0.72 0.66 0.59 0.55 0.53 0.53 0.50 0.62 0.63 0.36 0.51 0.48 0.37 0.35 0.30 0.29 0.28 0.25 0.25 0.25 0.23 0.22 0.22 0.18 0.13 0.14 0.09 0.12 0.13 0.13
0.91 1.15 1.21 1.32 1.32 1.29 1.28 1.29 1.31 1.27 1.20 1.15 1.05 0.97 0.86 0.76 0.68 0.67 0.63 0.61 0.57 0.54 0.54 0.56 0.57 0.50 0.41 0.60 0.46 0.39 0.35 0.28 0.27 0.28 0.27 0.28 0.26 0.22 0.21 0.15 0.12 0.14 0.09 0.10 0.11 0.15 0.13
0.69 0.79 0.95 1.09 1.19 1.31 1.26 1.24 1.25 1.26 1.18 1.19 1.06 0.96 0.86 0.72 0.69 0.69 0.64 0.68 0.58 0.51 0.55 0.56 0.58 0.49 0.47 0.40 0.40 0.35 0.34 0.30 0.25 0.25 0.22 0.22 0.22 0.19 0.18 0.14 0.09 0.11 0.11 0.11 0.10 0.12 0.11
0.69 0.68 0.70 0.92 0.92 1.12 1.30 1.34 1.25 1.23 1.17 1.13 1.06 0.97 0.88 0.71 0.72 0.68 0.69 0.70 0.56 0.42 0.46 0.39 0.43 0.39 0.38 0.40 0.37 0.32 0.33 0.30 0.27 0.24 0.19 0.21 0.17 0.14 0.16 0.17 0.17 0.15 0.12 0.09 0.10 0.11 0.12
0.70 0.70 0.68 0.70 0.91 0.97 1.13 1.26 1.27 1.21 1.17 1.14 1.11 0.97 0.86 0.76 0.68 0.73 0.78 0.63 0.61 0.56 0.35 0.41 0.39 0.40 0.39 0.35 0.27 0.27 0.29 0.22 0.21 0.17 0.19 0.17 0.15 0.19 0.20 0.18 0.15 0.13 0.10 0.09 0.11 0.13 0.12
0.67 0.72 0.73 0.71 0.72 0.89 0.94 1.13 1.14 1.25 1.16 1.12 1.11 0.99 0.89 0.77 0.63 0.71 0.73 0.64 0.63 0.47 0.28 0.31 0.35 0.37 0.34 0.32 0.26 0.25 0.27 0.24 0.21 0.19 0.18 0.16 0.19 0.22 0.18 0.15 0.13 0.11 0.10 0.10 0.09 0.10 0.12
0.62 0.67 0.71 0.72 0.71 0.74 0.89 0.93 1.05 1.22 1.17 1.18 1.10 1.00 0.94 0.74 0.66 0.71 0.66 0.64 0.54 0.48 0.24 0.22 0.30 0.32 0.32 0.29 0.24 0.28 0.29 0.23 0.20 0.18 0.20 0.19 0.23 0.19 0.15 0.14 0.14 0.09 0.13 0.12 0.09 0.09 0.06
0.60 0.62 0.63 0.68 0.70 0.71 0.79 0.91 0.97 1.08 1.13 1.15 1.06 1.01 0.91 0.85 0.68 0.64 0.66 0.61 0.50 0.35 0.15 0.26 0.27 0.35 0.30 0.25 0.27 0.27 0.29 0.24 0.20 0.19 0.18 0.18 0.18 0.15 0.14 0.14 0.15 0.11 0.13 0.10 0.10 0.10 0.12
0.55 0.55 0.59 0.62 0.64 0.70 0.73 0.87 0.95 0.91 0.99 1.10 1.05 1.06 1.00 0.89 0.77 0.67 0.67 0.49 0.38 0.20 0.16 0.24 0.26 0.25 0.25 0.25 0.27 0.30 0.28 0.28 0.27 0.21 0.21 0.19 0.22 0.20 0.17 0.17 0.15 0.15 0.12 0.11 0.13 0.12 0.06
0.53 0.49 0.51 0.59 0.61 0.64 0.71 0.80 0.85 0.85 0.90 0.96 1.00 1.03 0.94 0.87 0.76 0.78 0.62 0.39 0.24 0.19 0.24 0.21 0.23 0.25 0.23 0.22 0.23 0.24 0.23 0.22 0.18 0.15 0.15 0.18 0.18 0.21 0.20 0.13 0.16 0.14 0.11 0.06 0.05 0.06 0.06
0.51 0.42 0.48 0.59 0.62 0.62 0.70 0.79 0.85 0.85 0.80 1.00 1.04 0.96 0.86 0.78 0.78 0.70 0.49 0.32 0.22 0.23 0.24 0.24 0.23 0.23 0.20 0.23 0.24 0.23 0.22 0.19 0.23 0.20 0.17 0.14 0.12 0.17 0.18 0.13 0.12 0.15 0.16 0.09 0.06 0.07 0.08
0.45 0.42 0.49 0.68 0.67 0.65 0.70 0.80 0.84 0.80 0.76 0.89 0.98 0.82 0.70 0.71 0.75 0.61 0.41 0.23 0.25 0.26 0.23 0.23 0.23 0.20 0.20 0.22 0.22 0.22 0.22 0.21 0.21 0.22 0.15 0.15 0.13 0.19 0.17 0.15 0.16 0.13 0.14 0.20 0.14 0.15 0.13
0.47 0.53 0.61 0.77 0.80 0.81 0.82 0.80 0.79 0.75 0.75 0.88 0.83 0.74 0.70 0.83 0.77 0.60 0.40 0.30 0.28 0.29 0.26 0.25 0.20 0.21 0.19 0.22 0.21 0.21 0.21 0.23 0.22 0.25 0.24 0.19 0.11 0.16 0.14 0.17 0.20 0.19 0.20 0.14 0.17 0.10 0.09
0.57 0.76 0.83 0.81 0.87 0.85 0.82 0.76 0.77 0.78 0.82 0.81 0.71 0.54 0.72 0.82 0.72 0.49 0.33 0.30 0.30 0.28 0.27 0.26 0.25 0.22 0.22 0.21 0.21 0.21 0.20 0.23 0.24 0.24 0.23 0.19 0.14 0.12 0.13 0.13 0.14 0.16 0.16 0.18 0.20 0.18 0.14
0.65 0.83 0.94 0.89 0.87 0.79 0.80 0.80 0.78 0.81 0.84 0.81 0.67 0.49 0.73 0.73 0.43 0.42 0.32 0.28 0.30 0.27 0.31 0.29 0.29 0.26 0.24 0.24 0.21 0.20 0.20 0.22 0.26 0.24 0.18 0.20 0.15 0.10 0.08 0.15 0.18 0.18 0.17 0.19 0.16 0.15 0.21
0.71 0.74 0.83 0.93 0.88 0.84 0.80 0.77 0.79 0.83 0.81 0.70 0.56 0.57 0.72 0.63 0.35 0.37 0.35 0.31 0.29 0.27 0.27 0.29 0.27 0.28 0.28 0.24 0.21 0.24 0.23 0.26 0.25 0.22 0.19 0.19 0.14 0.07 0.06 0.12 0.15 0.12 0.17 0.21 0.24 0.26 0.20
0.73 0.73 0.74 0.77 0.81 0.80 0.79 0.80 0.82 0.81 0.80 0.71 0.56 0.42 0.50 0.53 0.49 0.37 0.32 0.28 0.26 0.29 0.28 0.30 0.28 0.28 0.27 0.25 0.25 0.22 0.22 0.24 0.25 0.25 0.24 0.20 0.13 0.08 0.04 0.05 0.09 0.10 0.16 0.20 0.25 0.19 0.21
0.71 0.72 0.72 0.72 0.72 0.73 0.74 0.76 0.76 0.79 0.79 0.68 0.54 0.44 0.47 0.35 0.36 0.34 0.30 0.28 0.25 0.25 0.31 0.29 0.26 0.25 0.24 0.21 0.23 0.21 0.22 0.22 0.23 0.26 0.20 0.15 0.08 0.09 0.09 0.09 0.11 0.14 0.16 0.22 0.22 0.24 0.21
0.69 0.69 0.69 0.70 0.70 0.71 0.72 0.71 0.73 0.76 0.75 0.59 0.47 0.43 0.41 0.32 0.35 0.30 0.29 0.27 0.25 0.27 0.28 0.27 0.25 0.27 0.26 0.24 0.23 0.19 0.20 0.20 0.18 0.19 0.15 0.13 0.06 0.10 0.08 0.11 0.16 0.15 0.20 0.23 0.24 0.26 0.25
0.67 0.68 0.69 0.68 0.67 0.68 0.68 0.66 0.70 0.73 0.66 0.55 0.54 0.50 0.36 0.33 0.34 0.30 0.29 0.28 0.28 0.28 0.30 0.30 0.28 0.27 0.26 0.26 0.26 0.24 0.23 0.21 0.19 0.15 0.12 0.10 0.10 0.12 0.08 0.16 0.16 0.13 0.20 0.23 0.22 0.27 0.28
0.65 0.67 0.67 0.67 0.66 0.65 0.64 0.63 0.69 0.67 0.65 0.56 0.52 0.46 0.36 0.28 0.30 0.30 0.31 0.31 0.28 0.27 0.27 0.30 0.31 0.29 0.30 0.32 0.29 0.25 0.20 0.17 0.16 0.14 0.14 0.12 0.15 0.16 0.12 0.16 0.08 0.21 0.28 0.27 0.24 0.28 0.33
0.64 0.65 0.64 0.64 0.62 0.61 0.59 0.60 0.64 0.63 0.62 0.55 0.50 0.41 0.36 0.28 0.30 0.32 0.33 0.30 0.31 0.31 0.28 0.29 0.32 0.32 0.33 0.27 0.18 0.14 0.15 0.17 0.20 0.21 0.21 0.21 0.19 0.16 0.12 0.13 0.16 0.21 0.26 0.24 0.21 0.23 0.32
0.63 0.63 0.63 0.63 0.57 0.58 0.51 0.57 0.62 0.60 0.58 0.52 0.50 0.48 0.40 0.29 0.31 0.35 0.30 0.30 0.25 0.27 0.28 0.31 0.34 0.36 0.31 0.23 0.16 0.11 0.11 0.14 0.15 0.20 0.27 0.23 0.24 0.19 0.17 0.12 0.09 0.20 0.26 0.29 0.29 0.18 0.33
0.62 0.63 0.62 0.62 0.59 0.52 0.48 0.53 0.55 0.57 0.56 0.51 0.46 0.50 0.40 0.32 0.36 0.33 0.29 0.29 0.31 0.29 0.29 0.30 0.31 0.30 0.28 0.18 0.13 0.11 0.11 0.17 0.12 0.13 0.16 0.18 0.19 0.15 0.16 0.14 0.16 0.26 0.27 0.31 0.16 0.19 0.32
0.62 0.62 0.60 0.58 0.57 0.56 0.50 0.53 0.53 0.54 0.51 0.46 0.44 0.49 0.39 0.36 0.38 0.40 0.38 0.32 0.30 0.29 0.25 0.32 0.30 0.29 0.23 0.16 0.15 0.15 0.14 0.17 0.16 0.18 0.17 0.15 0.14 0.14 0.16 0.14 0.10 0.27 0.24 0.17 0.24 0.30 0.33
0.63 0.62 0.60 0.57 0.56 0.53 0.46 0.47 0.51 0.53 0.49 0.45 0.32 0.43 0.43 0.36 0.38 0.45 0.43 0.43 0.39 0.37 0.32 0.33 0.28 0.25 0.24 0.19 0.19 0.19 0.16 0.18 0.16 0.11 0.22 0.14 0.17 0.14 0.16 0.15 0.25 0.28 0.27 0.31 0.31 0.29 0.32